Regional Weather Roundup
Issued by NWS

Home | Current Version | Previous Version | Text Only | Print | Product List | Glossary On
Versions: 1 2 3 4 5 6 7 8 9 10 11 12 13 14 15 16 17 18 19 20 21 22 23 24 25 26 27 28 29 30 31 32 33 34 35 36 37 38 39 40 41 42 43 44 45 46 47 48 49 50
000
ASPQ40 PGUM 210710
RWRPQ
WEATHER ROUNDUP FOR THE MARIANAS AND MICRONESIA
NATIONAL WEATHER SERVICE TIYAN GU
500 PM CHST SAT APR 21 2018

GUZ001>004-210800-
MARIANA ISLANDS-

CITY           SKY/WX    TMP DP  RH WIND       PRES   REMARKS
GUAM AIRPORT   MOSUNNY   86  73  66 E18       29.82S HX  93
ANDERSEN AFB   MOSUNNY   82  72  69 E15       29.83S
ROTA AIRPORT   MOSUNNY   81  70  69 E14       29.82S
TINIAN AP      MOSUNNY   82  75  78 NE15      29.81S
SAIPAN AP      MOSUNNY   82  73  74 E20       29.83R

$$

PMZ161-210800-
REPUBLIC OF PALAU-

CITY           SKY/WX    TMP DP  RH WIND       PRES   REMARKS
KOROR AP       PTSUNNY   86  77  74 NE10      29.75F HX  97
KOROR WSO      MOSUNNY   88  77  70 E6        29.75F HX 100

$$

PMZ171>174-210800-
FEDERATED STATES OF MICRONESIA-

CITY           SKY/WX    TMP DP  RH WIND       PRES   REMARKS
YAP AIRPORT    PTSUNNY   88  75  66 NE13      29.78S HX  97
CHUUK AP       PTSUNNY   86  79  79 NE8       29.73R HX  99
POHNPEI AP     NOT AVBL
POHNPEI WSO    MOCLDY    84  75  74 NE7       29.76R HX  92
KOSRAE AP      NOT AVBL

$$

PMZ181-210800-
REPUBLIC OF THE MARSHALL ISLANDS-

CITY           SKY/WX    TMP DP  RH WIND       PRES   REMARKS
KWAJALEIN AP   MOCLDY    84  75  74 E13       29.76R HX  92
MAJURO AP      NOT AVBL
MAJURO WSO     CLOUDY    82  77  83 E8        29.75R HX  91

$$




USA.gov is the U.S. government's official web portal to all federal, state and local government web resources and services.